Beaufort MCAS, SC

10:08 AM EDT on July 28, 2017 (GMT -0400)
Beaufort Marine Corps Air Station

Weather History for KNBC - January, 2012

Change the Weather History Date:

Sunday, January 29, 2012

  Actual Average Record
Temperature  
Mean Temperature 48 °F -  
Max Temperature 60 °F 61 °F 83 °F (1957)
Min Temperature 35 °F 39 °F 17 °F (1940)
Degree Days  
Heating Degree Days 16    
Moisture  
Dew Point 27 °F    
Average Humidity 49    
Maximum Humidity 73    
Minimum Humidity 15    
Precipitation  
Precipitation 0.00 in - - ()
Sea Level Pressure  
Sea Level Pressure 30.33 in    
Wind  
Wind Speed 6 mph (NW)    
Max Wind Speed 12 mph    
Max Gust Speed 18 mph    
Visibility 10 miles    
Events      
Averages and records for this station are not official NWS values.
T = Trace of Precipitation, MM = Missing Value Source: NWS Daily Summary

Daily Weather History Graph

Daily Weather History Graph

Search for Another Location

Airport or City:

Trip Planner

Search our weather history database for the weather conditions in past years. The results will help you decide how hot, cold, wet, or windy it might be!

Date:

Astronomy

Jan. 29, 2012 Rise Set
Actual Time 7:19 AM EST 5:52 PM EST
Civil Twilight 6:53 AM EST 6:18 PM EST
Nautical Twilight 6:23 AM EST 6:48 PM EST
Astronomical Twilight 5:54 AM EST 7:17 PM EST
Moon 10:35 AM EST (1/29) No Moon Set
Length of Visible Light 11h 25m
Length of Day
10h 33m
Waxing Crescent, 36% of the Moon is Illuminated
Jan 29
Waxing Crescent
Jan 30
First Quarter
Feb 7
Full
Feb 14
Last Quarter
Feb 21
New

Hourly Weather History & Observations

Time (EST) Temp. Windchill Dew Point Humidity Pressure Visibility Wind Dir Wind Speed Gust Speed Precip Events Conditions
12:56 AM 52.0 °F - 39.0 °F 61% 30.22 in 10.0 mi West 8.1 mph - N/A   Clear
1:56 AM 51.1 °F - 37.9 °F 61% 30.23 in 10.0 mi WNW 8.1 mph - N/A   Clear
2:56 AM 48.9 °F - 37.9 °F 66% 30.25 in 10.0 mi NW 6.9 mph - N/A   Clear
3:56 AM 46.0 °F 42.5 °F 37.0 °F 71% 30.25 in 10.0 mi NW 6.9 mph - N/A   Clear
4:56 AM 46.0 °F 42.5 °F 36.0 °F 68% 30.26 in 10.0 mi NW 6.9 mph - N/A   Clear
5:56 AM 45.0 °F 41.2 °F 35.1 °F 68% 30.30 in 10.0 mi NW 6.9 mph - N/A   Clear
6:56 AM 41.0 °F 39.0 °F 33.1 °F 73% 30.32 in 10.0 mi NNW 3.5 mph - N/A   Clear
7:56 AM 42.1 °F 40.2 °F 34.0 °F 73% 30.34 in 10.0 mi WNW 3.5 mph - N/A   Clear
8:56 AM 46.9 °F - 33.1 °F 59% 30.37 in 10.0 mi NW 9.2 mph - N/A   Clear
9:56 AM 50.0 °F - 28.0 °F 43% 30.39 in 10.0 mi North 11.5 mph 18.4 mph N/A   Clear
10:56 AM 54.0 °F - 23.0 °F 30% 30.40 in 10.0 mi NNW 9.2 mph - N/A   Clear
11:56 AM 55.9 °F - 21.9 °F 27% 30.38 in 10.0 mi NNE 6.9 mph - N/A   Clear
12:56 PM 57.0 °F - 19.0 °F 23% 30.35 in 10.0 mi Variable 3.5 mph - N/A   Clear
1:56 PM 60.1 °F - 17.1 °F 19% 30.32 in 10.0 mi West 6.9 mph - N/A   Clear
2:56 PM 60.1 °F - 15.1 °F 17% 30.30 in 10.0 mi West 6.9 mph - N/A   Clear
3:56 PM 60.1 °F - 12.0 °F 15% 30.31 in 10.0 mi Variable 3.5 mph - N/A   Clear
4:56 PM 60.1 °F - 14.0 °F 16% 30.31 in 10.0 mi WNW 8.1 mph - N/A   Clear
5:56 PM 54.0 °F - 15.1 °F 22% 30.32 in 10.0 mi WSW 3.5 mph - N/A   Clear
6:56 PM 46.0 °F - 28.0 °F 50% 30.35 in 10.0 mi Calm Calm - N/A   Clear
7:56 PM 42.1 °F - 26.1 °F 53% 30.36 in 10.0 mi Calm Calm - N/A   Clear
8:56 PM 39.9 °F - 27.0 °F 60% 30.37 in 10.0 mi Calm Calm - N/A   Clear
9:56 PM 39.9 °F - 28.9 °F 65% 30.37 in 10.0 mi Calm Calm - N/A   Clear
10:56 PM 37.0 °F - 27.0 °F 67% 30.38 in 10.0 mi Calm Calm - N/A   Clear
11:56 PM 35.1 °F 32.2 °F 27.0 °F 72% 30.38 in 10.0 mi SW 3.5 mph - N/A   Clear